User: anonymous   Login
Location: Oshawa
(43.9000°N, 78.8670°W)
Time: 10:05:03
(UTC-04:00)
Language:

Cosmos 1805 Rocket - Orbit

View from above orbital plane
View from above orbital plane
View from above satellite
View from above satellite

Ground track
Ground track

The orbit data is extracted from the following two-line orbital elements,

1 17192U 86097B   17177.76624625 +.00000088 +00000-0 +77959-5 0  9999
2 17192 082.5068 247.5147 0018437 071.7930 067.7044 14.83505893629002
Epoch (UTC): 26 June 2017 18:23:23
Eccentricity: 0.0018437
inclination: 82.5068°
perigee height: 605 km
apogee height: 631 km
right ascension of ascending node: 247.5147°
argument of perigee: 71.7930°
revolutions per day: 14.83505893
mean anomaly at epoch: 67.7044°
orbit number at epoch: 62900

The dashed part of the orbit path shows where the satellite is in the earth's shadow,  

DLR